Probability
0 0 0 0 0 0 0 0 0 0 0 0 0 0 0 0 0 0 0 0 0 0 0 0 0 0 0 0 0 0 0 0 0 0 0 0 0 0
0 0 0 0 0 0 0 0 0 0 0 0 0 0 0 0 0 0 0 0 0 0 0 0 0 0 0 0 0 0 0 0 0 0 0 0 0 0
0 0 0 0 0 0 0 0 0 0 0 0 0 0 0 0 0 0 0 0 0 0 0 0 0 0 0 0 0 0 0 0 0 0 0 0 0 0
0 0 0 0 0 0 0 0 0 0 0 0 0 0 0 0 0 0 0 0 0 0 0 0 0 0 0 0 0 0 0 0 0 0 0 0 0 0
0 0 0 0 0 0 0 0 0 0 0 0 0 0 0 0 0 0 0 0 0 0 0 0 0 0 0 0 0 0 0 0 0 0 0 0 0 0
0 0 0 0 0 0 0 0 0 0 0 0 0 0 0 0 0 0 0 0 0 0 0 0 0 0 0 0 0 0 0 0 0 0 0 0 0 0
0 0 0 0 0 0 0 0 0 0 0 0 0 0 0 0 0 0 0 0 0 0 0 0 0 0 0 0 0 0 0 0 0 0 0 0 0 0
0 0 0 0 0 0 0 0 0 0 0 0 0 0 0 0 0 0 0 0 0 0 0 0 0 0 0 0 0 0 0 0 0 0 0 0 0 0
0 0 0 0 0 0 0 0 0 0 0 0 0 0 0 0 0 0 0 0 0 0 0 0 0 0 0 0 0 0 0 0 0 0 0 0 0 0
0 0 0 0 0 0 0 0 0 0 0 0 0 0 0 0 0 0 0 0 0 0 0 0 0 0 0 0 0 0 0 0 0 0 0 0 0 0
0 0 0 0 0 0 0 0 0 0 0 0 0 0 0 0 0 0 0 0 0 0 0 0 0 0 0 0 0 0 0 0 0 0 0 0 0 0
0 0 0 0 0 0 0 0 0 0 0 0 0 0 0 0 0 0 0 0 0 0 0 0 0 0 0 0 0 0 0 0 0 0 0 0 0 0
0 0 0 0 0 0 0 0 0 0 0 0 0 0 0 0 0 0 0 0 0 0 0 0 0 0 0 0 0 0 0 0 0 0 0 0 0 0
0 0 0 0 0 0 0 0 0 0 0 0 0 0 0 0 0 0 0 0 0 0 0 0 0 0 0 0 0 0 0 0 0 0 0 0 0 0
0 0 0 0 0 0 0 0 0 0 0 0 0 0 0 0 0 0 0 0 0 0 0 1 1 1 1 0 0 0 0 0 0 0 0 0 0 0
0 0 0 0 0 0 0 0 0 0 0 0 0 0 0 0 0 0 0 0 0 0 0 1 3 3 3 1 0 0 0 0 0 0 0 0 0 0
0 0 0 0 0 0 0 0 0 0 0 0 0 0 0 0 0 0 0 0 0 0 0 1 3 5 5 3 1 0 0 0 0 0 0 0 0 0
0 0 0 0 0 0 0 0 0 0 0 0 0 0 0 0 0 0 0 0 0 0 0 0 1 3 3 2 1 0 0 0 0 0 0 0 0 0
0 0 0 0 0 0 0 0 0 0 0 0 0 0 0 0 0 0 0 0 0 0 0 0 0 1 1 1 1 0 0 0 0 0 0 0 0 0
0 0 0 0 0 0 0 0 0 0 0 0 0 0 0 0 0 0 0 0 0 0 0 0 0 0 0 0 0 0 0 0 0 0 0 0 0 0
0 0 0 0 0 0 0 0 0 0 0 0 0 0 0 0 0 0 0 0 0 0 0 0 0 0 0 0 0 0 0 0 0 0 0 0 0 0
0 0 0 0 0 0 0 0 0 0 0 0 0 0 0 0 0 0 0 0 0 0 0 0 0 0 0 0 0 0 0 0 0 0 0 0 0 0
0 0 0 0 0 0 0 0 0 0 0 0 0 0 0 0 0 0 0 0 0 0 0 0 0 0 0 0 0 0 0 0 0 0 0 0 0 0
Wind_Speed
3 2 1 1 1 1 2 3 4 2 3 4 3 2 2 3 6 5 5 9 10 10 10 10 9 9 9 9 9 9 10 10 10 10 11 12 13 14
3 3 2 2 1 1 1 2 3 4 3 3 3 3 2 3 7 5 6 11 12 12 12 12 12 12 12 12 11 11 11 11 11 11 11 12 12 12
4 4 4 3 2 2 1 2 2 3 4 4 3 2 2 3 3 4 5 6 6 12 13 13 14 13 13 14 13 13 12 12 12 12 12 12 12 13
6 5 6 4 5 4 3 3 3 3 4 5 3 3 5 5 4 5 5 6 6 11 14 15 15 15 15 15 15 14 14 14 13 13 13 13 13 13
6 6 6 5 6 4 5 4 4 4 4 4 5 3 4 4 4 5 6 5 6 9 12 15 16 16 16 16 16 16 16 15 15 14 14 14 14 13
6 6 7 7 7 7 6 6 5 5 4 4 5 4 4 4 3 5 5 5 6 7 9 9 11 14 15 16 16 17 16 16 16 16 16 15 15 14
6 6 7 8 9 8 6 6 5 5 5 5 6 5 5 4 5 4 6 6 6 5 5 6 6 6 7 11 15 16 17 17 17 17 17 16 16 16
6 6 6 7 8 9 10 9 8 7 7 6 6 7 9 7 6 5 5 5 6 4 4 7 5 7 7 6 12 16 17 17 18 18 18 17 17 17
3 3 4 3 3 3 5 6 7 8 9 7 8 9 8 7 6 6 7 8 9 5 3 6 5 7 7 8 15 16 17 18 18 18 18 18 18 18
2 2 1 2 5 4 3 4 5 6 7 7 7 8 8 7 7 9 10 9 7 5 5 7 6 7 8 7 13 17 18 18 18 18 18 18 18 18
3 3 2 2 5 6 4 4 6 7 8 10 11 12 13 14 11 6 6 7 10 7 6 6 7 7 7 8 11 16 18 19 19 19 18 18 18 17
3 3 4 4 6 6 4 4 7 8 8 10 10 11 10 12 14 11 9 9 9 7 6 6 7 5 6 6 8 8 10 15 18 19 18 18 17 10
2 2 3 6 8 9 7 5 10 10 8 8 9 8 7 7 8 9 9 10 11 10 6 5 6 6 7 6 5 6 8 8 8 10 14 18 17 13
1 2 4 9 11 12 9 10 14 11 6 6 6 7 7 8 8 8 9 10 12 13 10 8 7 7 8 9 7 5 6 7 8 8 8 11 14 16
2 6 9 12 12 8 10 13 10 5 5 6 7 7 7 7 8 7 8 9 10 12 11 10 10 9 9 10 9 7 6 5 7 8 7 7 7 6
4 7 10 11 8 9 9 7 5 5 5 6 7 7 6 6 7 7 8 7 8 9 8 10 11 11 11 11 10 9 8 7 6 8 8 7 6 7
4 3 3 4 4 5 5 5 5 5 5 5 6 7 7 7 7 6 6 6 7 9 9 6 7 9 11 10 10 10 9 9 9 8 7 8 8 9
3 3 4 4 5 5 6 6 5 5 6 6 7 7 8 8 8 7 7 7 9 9 9 7 6 6 7 9 13 12 10 10 9 9 8 9 10 8
3 4 4 5 5 5 6 6 7 7 7 7 8 8 8 8 8 8 8 8 9 9 9 7 6 7 10 12 8 12 11 10 8 8 9 10 11 9
3 4 5 5 6 6 6 7 7 8 7 8 8 8 8 9 9 9 8 9 9 9 9 8 7 8 11 12 9 7 13 11 9 10 9 8 8 9
5 5 6 6 7 7 7 7 8 8 9 9 8 9 8 9 10 9 9 12 11 10 10 9 9 12 9 7 8 8 7 14 14 9 8 7 6 5
6 6 7 7 7 7 7 8 8 8 9 8 8 9 9 9 10 12 10 10 10 10 11 10 8 7 7 9 11 10 9 7 11 15 14 12 8 8
6 7 7 8 7 7 7 8 10 9 9 9 9 9 9 10 10 10 11 11 11 11 11 10 8 7 8 9 9 9 9 8 5 6 8 13 17 16
Wind_Direction
203 195 197 221 190 177 166 154 149 177 275 282 290 281 228 213 211 199 206 217 219 224 230 237 242 246 249 250 250 249 250 250 251 250 250 250 250 249
213 212 224 233 233 203 173 175 163 165 217 258 257 269 246 227 219 214 221 224 226 229 234 240 244 246 247 247 247 247 246 246 246 248 248 249 249 250
229 221 232 230 232 237 210 191 186 169 211 263 261 266 248 243 236 230 237 232 234 236 238 242 245 247 246 245 244 244 245 245 246 246 247 247 247 247
229 228 235 233 232 232 225 227 220 203 204 249 266 261 251 242 238 238 239 236 233 241 241 243 246 247 246 244 242 241 241 243 244 246 247 247 246 247
221 223 231 227 236 234 229 232 233 231 211 229 257 250 254 249 250 255 250 248 245 245 244 244 245 246 245 243 241 240 240 241 242 243 245 246 246 246
227 225 225 220 227 229 232 232 231 237 234 238 256 259 257 254 240 252 266 253 251 252 251 247 245 246 245 242 241 240 240 240 239 240 242 243 244 244
243 241 238 233 232 229 234 230 226 233 236 240 254 262 259 253 244 239 254 263 260 242 250 252 247 247 246 244 243 242 241 240 239 239 239 239 240 241
251 252 254 250 252 249 249 246 231 232 238 240 248 249 257 250 249 244 249 258 268 244 226 252 234 243 243 236 240 239 240 240 240 240 239 238 237 237
274 282 290 308 316 302 289 283 269 260 248 245 251 253 259 254 250 253 245 241 249 242 214 254 242 247 245 244 240 238 239 240 240 240 239 238 236 235
330 339 334 2 14 2 337 319 299 289 276 263 256 262 264 261 247 251 255 258 257 248 217 249 247 246 249 242 243 240 240 240 240 240 238 237 235 234
12 23 47 57 19 15 359 324 308 298 291 284 276 271 270 267 262 264 258 256 263 254 218 233 248 252 250 248 246 241 240 240 241 240 238 235 234 232
20 22 33 17 353 352 339 313 301 297 302 304 295 284 273 266 260 248 247 252 260 259 224 225 245 241 259 247 243 241 241 242 241 240 238 235 231 223
2 341 331 341 336 328 318 286 277 287 293 289 288 286 280 269 260 250 242 243 252 253 234 223 242 236 241 255 251 242 237 238 237 239 237 235 229 209
327 308 305 317 317 313 306 290 293 298 287 285 286 285 284 281 274 263 254 249 250 255 252 234 242 242 249 256 255 249 240 235 230 232 230 231 229 219
308 308 311 311 312 308 299 300 305 299 293 290 287 284 281 282 284 281 273 264 261 258 257 245 243 246 242 250 253 244 246 242 228 230 229 224 220 205
324 313 310 307 303 296 299 303 296 285 285 283 286 286 286 284 283 281 282 282 280 277 262 249 245 245 249 248 248 250 241 238 228 226 228 230 222 212
312 312 314 315 315 309 304 299 299 302 300 294 293 294 291 289 286 281 273 273 273 278 281 270 252 245 245 247 250 247 245 242 236 229 224 234 232 223
340 323 312 309 309 309 310 308 305 302 298 296 296 293 293 293 292 286 275 270 270 272 273 272 270 271 266 253 231 242 243 241 237 226 220 231 239 229
351 319 312 311 311 312 310 309 307 302 299 297 295 293 293 293 291 287 282 274 270 269 269 265 257 256 265 270 251 218 232 240 234 230 225 225 235 233
335 321 316 313 310 308 306 304 303 304 302 301 298 296 296 295 294 292 287 280 276 273 271 263 252 247 251 261 268 252 226 229 231 233 232 230 237 241
326 319 314 311 308 304 302 301 300 300 299 299 297 296 297 296 293 292 292 291 284 278 275 269 258 253 254 256 259 257 242 225 223 224 218 219 226 225
319 315 313 309 308 305 304 302 302 301 300 299 300 299 297 295 294 293 292 291 287 283 282 279 272 261 250 250 256 260 258 245 233 232 225 213 206 212
318 316 313 311 309 307 306 306 307 305 304 303 302 300 299 297 295 292 290 288 287 287 286 285 279 262 254 251 255 255 253 250 240 232 238 229 226 232